クリステンセン彗星

438P/Christensen (2005)

English version
Home page
Updated on January 26, 2022

---------------------------------------------------------------------

・ プロフィール

符号 438P/2005 T2
発見日 2005年10月7日
発見光度 19.9等
発見者 Eric Christensen (Mt. Lemmon Survey)

・ 軌道要素

                    Epoch = 2005 Apr. 20.0 TT
     T = 2005 Apr. 11.35661 TT        Peri. =  58.37421
     e = 0.4216303                    Node  = 260.62685 2000.0
     q = 2.2113761 AU                 Incl. =   8.33731
       a =  3.8234650 AU   n = 0.13183126   P =   7.48 years

・ 光度変化

        m1 = 15.0 + 5 logΔ + 10.0 log r

---------------------------------------------------------------------

軌道要素は、CBET 5074に掲載されたものです。
光度グラフはComet for Windowsで作成したものです。

---------------------------------------------------------------------

Copyright(C) Seiichi Yoshida (comet@aerith.net). All rights reserved.